| time (UTC) | temp F | wind direction | speed MPH | gust MPH | rain 1hr in | rain 24hr in | rain mn in | humidity % | barometer mb |
| 20260510213842 | 69 | 68 | 4.0 | 8.0 | 0.00 | 0.00 | 0.00 | 83 | 1017.2 |
| 20260510212835 | 70 | 124 | 4.0 | 9.0 | 0.00 | 0.00 | 0.00 | 82 | 1017.2 |
| 20260510211842 | 70 | 128 | 3.0 | 8.0 | 0.00 | 0.00 | 0.00 | 81 | 1017.6 |
| 20260510205847 | 71 | 89 | 3.0 | 6.0 | 0.00 | 0.00 | 0.00 | 80 | 1017.6 |
| 20260510204846 | 72 | 89 | 2.0 | 5.0 | 0.00 | 0.00 | 0.00 | 78 | 1016.9 |
| 20260510203829 | 72 | 102 | 2.0 | 6.0 | 0.00 | 0.00 | 0.00 | 76 | 1017.2 |
| 20260510202839 | 73 | 51 | 2.0 | 4.0 | 0.00 | 0.00 | 0.00 | 76 | 1017.2 |
| 20260510201836 | 72 | 31 | 3.0 | 6.0 | 0.00 | 0.00 | 0.00 | 75 | 1017.2 |
| 20260510200811 | 73 | 28 | 2.0 | 4.0 | 0.00 | 0.00 | 0.00 | 76 | 1017.2 |
| 20260510194840 | 73 | 58 | 3.0 | 5.0 | 0.00 | 0.00 | 0.00 | 77 | 1016.9 |
| 20260510193815 | 72 | 49 | 3.0 | 6.0 | 0.00 | 0.00 | 0.00 | 78 | 1017.2 |
| 20260510192811 | 72 | 51 | 3.0 | 6.0 | 0.00 | 0.00 | 0.00 | 79 | 1017.2 |
| 20260510191839 | 72 | 59 | 2.0 | 5.0 | 0.00 | 0.00 | 0.00 | 79 | 1017.2 |
| 20260510190813 | 71 | 39 | 2.0 | 5.0 | 0.00 | 0.00 | 0.00 | 80 | 1016.9 |
| 20260510185824 | 71 | 69 | 3.0 | 5.0 | 0.00 | 0.00 | 0.00 | 79 | 1016.9 |
| 20260510184840 | 71 | 37 | 4.0 | 7.0 | 0.00 | 0.00 | 0.00 | 77 | 1016.9 |
| 20260510182814 | 73 | 40 | 2.0 | 7.0 | 0.00 | 0.00 | 0.00 | 72 | 1016.5 |
| 20260510181809 | 73 | 42 | 2.0 | 4.0 | 0.00 | 0.00 | 0.00 | 69 | 1016.2 |
| 20260510180806 | 73 | 49 | 3.0 | 6.0 | 0.00 | 0.00 | 0.00 | 71 | 1016.2 |
| 20260510175843 | 74 | 66 | 2.0 | 5.0 | 0.00 | 0.00 | 0.00 | 71 | 1015.9 |
| 20260510173846 | 72 | 65 | 3.0 | 6.0 | 0.00 | 0.00 | 0.00 | 71 | 1016.5 |
| 20260510172805 | 73 | 85 | 3.0 | 5.0 | 0.00 | 0.00 | 0.00 | 71 | 1016.5 |
| 20260510171814 | 79 | 184 | 1.0 | 6.0 | 0.00 | 0.00 | 0.00 | 69 | 1016.2 |
| 20260510170827 | 80 | 51 | 1.0 | 2.0 | 0.00 | 0.00 | 0.00 | 71 | 1016.2 |
| 20260510165814 | 80 | 113 | 0.0 | 1.0 | 0.00 | 0.00 | 0.00 | 72 | 1015.9 |
| 20260510164834 | 80 | 126 | 1.0 | 5.0 | 0.00 | 0.00 | 0.00 | 71 | 1015.5 |
| 20260510163811 | 81 | 165 | 2.0 | 4.0 | 0.00 | 0.00 | 0.00 | 70 | 1015.2 |
| 20260510162840 | 80 | 161 | 3.0 | 6.0 | 0.00 | 0.00 | 0.00 | 71 | 1014.8 |
| 20260510161832 | 80 | 167 | 4.0 | 10.0 | 0.00 | 0.00 | 0.00 | 70 | 1014.5 |
| 20260510160826 | 80 | 154 | 2.0 | 4.0 | 0.00 | 0.00 | 0.00 | 70 | 1014.2 |
| 20260510155841 | 79 | 176 | 3.0 | 6.0 | 0.00 | 0.00 | 0.00 | 71 | 1014.5 |
| 20260510153849 | 79 | 150 | 4.0 | 7.0 | 0.00 | 0.00 | 0.00 | 69 | 1013.8 |
| 20260510152807 | 79 | 167 | 3.0 | 8.0 | 0.00 | 0.00 | 0.00 | 69 | 1014.2 |
| 20260510151841 | 78 | 149 | 3.0 | 7.0 | 0.00 | 0.00 | 0.00 | 69 | 1014.2 |
| 20260510150814 | 77 | 163 | 4.0 | 8.0 | 0.00 | 0.00 | 0.00 | 70 | 1014.2 |
| 20260510145830 | 76 | 165 | 3.0 | 6.0 | 0.00 | 0.00 | 0.00 | 68 | 1014.5 |
| 20260510144810 | 76 | 162 | 3.0 | 6.0 | 0.00 | 0.00 | 0.00 | 68 | 1014.2 |
| 20260510143810 | 75 | 160 | 3.0 | 6.0 | 0.00 | 0.00 | 0.00 | 67 | 1014.5 |
| 20260510142806 | 75 | 137 | 2.0 | 5.0 | 0.00 | 0.00 | 0.00 | 67 | 1014.8 |
| 20260510141842 | 75 | 96 | 2.0 | 8.0 | 0.00 | 0.00 | 0.00 | 70 | 1014.5 |
| 20260510140833 | 75 | 85 | 2.0 | 4.0 | 0.00 | 0.00 | 0.00 | 71 | 1014.8 |
| 20260510135805 | 74 | 110 | 2.0 | 4.0 | 0.00 | 0.00 | 0.00 | 71 | 1015.2 |
| 20260510134832 | 73 | 88 | 1.0 | 4.0 | 0.00 | 0.00 | 0.00 | 72 | 1014.8 |
| 20260510133843 | 73 | 111 | 1.0 | 3.0 | 0.00 | 0.00 | 0.00 | 72 | 1014.8 |
| 20260510132809 | 72 | 85 | 1.0 | 3.0 | 0.00 | 0.00 | 0.00 | 75 | 1014.8 |
| 20260510130825 | 71 | 125 | 2.0 | 6.0 | 0.00 | 0.00 | 0.00 | 74 | 1014.8 |
| 20260510125823 | 71 | 128 | 1.0 | 4.0 | 0.00 | 0.00 | 0.00 | 75 | 1014.8 |
| 20260510124830 | 71 | 80 | 2.0 | 4.0 | 0.00 | 0.00 | 0.00 | 75 | 1014.8 |
| 20260510123833 | 71 | 103 | 1.0 | 4.0 | 0.00 | 0.00 | 0.00 | 74 | 1014.5 |
| 20260510122828 | 71 | 71 | 2.0 | 4.0 | 0.00 | 0.00 | 0.00 | 75 | 1014.2 |
| 20260510121838 | 71 | 74 | 2.0 | 4.0 | 0.00 | 0.00 | 0.00 | 76 | 1014.2 |
| 20260510120813 | 71 | 95 | 1.0 | 5.0 | 0.00 | 0.00 | 0.00 | 76 | 1013.8 |
| 20260510115846 | 71 | 85 | 3.0 | 7.0 | 0.00 | 0.00 | 0.00 | 75 | 1013.5 |
| 20260510113847 | 72 | 112 | 3.0 | 7.0 | 0.00 | 0.00 | 0.00 | 77 | 1013.5 |
| 20260510112841 | 72 | 91 | 2.0 | 6.0 | 0.00 | 0.00 | 0.00 | 77 | 1013.5 |
| 20260510111806 | 72 | 68 | 2.0 | 4.0 | 0.00 | 0.00 | 0.00 | 77 | 1013.5 |
| 20260510110818 | 73 | 68 | 3.0 | 6.0 | 0.00 | 0.00 | 0.00 | 78 | 1013.5 |
| 20260510105848 | 73 | 81 | 3.0 | 5.0 | 0.00 | 0.00 | 0.00 | 79 | 1013.5 |
| 20260510104825 | 73 | 67 | 3.0 | 4.0 | 0.00 | 0.00 | 0.00 | 80 | 1013.2 |
| 20260510103821 | 73 | 71 | 3.0 | 5.0 | 0.00 | 0.00 | 0.00 | 82 | 1013.5 |
| 20260510101804 | 75 | 58 | 2.0 | 4.0 | 0.00 | 0.00 | 0.00 | 84 | 1013.2 |
| 20260510100834 | 75 | 65 | 2.0 | 5.0 | 0.00 | 0.00 | 0.00 | 82 | 1012.8 |
| 20260510095844 | 75 | 69 | 1.0 | 2.0 | 0.00 | 0.00 | 0.00 | 83 | 1012.8 |
| 20260510094838 | 74 | 70 | 1.0 | 3.0 | 0.00 | 0.00 | 0.00 | 84 | 1012.5 |
| 20260510093833 | 73 | 59 | 1.0 | 2.0 | 0.00 | 0.00 | 0.00 | 85 | 1012.8 |
| 20260510092838 | 73 | 98 | 0.0 | 1.0 | 0.00 | 0.00 | 0.00 | 85 | 1012.5 |
| 20260510091831 | 73 | 77 | 0.0 | 1.0 | 0.00 | 0.00 | 0.00 | 84 | 1011.8 |
| 20260510085839 | 74 | 88 | 0.0 | 1.0 | 0.00 | 0.00 | 0.00 | 82 | 1011.8 |
| 20260510084848 | 74 | 62 | 0.0 | 1.0 | 0.00 | 0.00 | 0.00 | 82 | 1012.1 |
| 20260510083828 | 73 | 208 | 0.0 | 1.0 | 0.00 | 0.00 | 0.00 | 82 | 1011.8 |
| 20260510081831 | 73 | 87 | 0.0 | 1.0 | 0.00 | 0.00 | 0.00 | 82 | 1011.1 |
| 20260510080848 | 73 | 96 | 0.0 | 0.0 | 0.00 | 0.00 | 0.00 | 80 | 1010.8 |
| 20260510075821 | 73 | 61 | 0.0 | 1.0 | 0.00 | 0.00 | 0.00 | 80 | 1010.4 |
| 20260510074817 | 74 | 77 | 0.0 | 2.0 | 0.00 | 0.00 | 0.00 | 79 | 1010.4 |
| 20260510073817 | 75 | 134 | 0.0 | 2.0 | 0.00 | 0.00 | 0.00 | 78 | 1010.4 |
| 20260510072809 | 75 | 140 | 1.0 | 2.0 | 0.00 | 0.00 | 0.00 | 75 | 1010.1 |
| 20260510071833 | 75 | 142 | 0.0 | 2.0 | 0.00 | 0.00 | 0.00 | 75 | 1010.4 |
| 20260510070817 | 76 | 126 | 1.0 | 3.0 | 0.00 | 0.00 | 0.00 | 73 | 1010.8 |
| 20260510065824 | 76 | 139 | 1.0 | 2.0 | 0.00 | 0.00 | 0.00 | 73 | 1010.8 |
| 20260510064838 | 76 | 77 | 0.0 | 2.0 | 0.00 | 0.00 | 0.00 | 72 | 1011.1 |
| 20260510062825 | 75 | 44 | 1.0 | 2.0 | 0.00 | 0.00 | 0.00 | 77 | 1011.1 |
| 20260510061827 | 75 | 51 | 0.0 | 1.0 | 0.00 | 0.00 | 0.00 | 74 | 1010.1 |
| 20260510060847 | 76 | 135 | 0.0 | 2.0 | 0.00 | 0.00 | 0.00 | 72 | 1009.8 |
| 20260510055837 | 77 | 162 | 0.0 | 4.0 | 0.00 | 0.00 | 0.00 | 70 | 1009.8 |
| 20260510054815 | 77 | 140 | 0.0 | 2.0 | 0.00 | 0.00 | 0.00 | 69 | 1009.4 |
| 20260510053829 | 78 | 151 | 1.0 | 3.0 | 0.00 | 0.00 | 0.00 | 67 | 1009.4 |
| 20260510052830 | 78 | 166 | 1.0 | 3.0 | 0.00 | 0.00 | 0.00 | 66 | 1009.1 |
| 20260510045824 | 79 | 160 | 3.0 | 5.0 | 0.00 | 0.00 | 0.00 | 64 | 1009.1 |
| 20260510044813 | 79 | 154 | 2.0 | 5.0 | 0.00 | 0.00 | 0.00 | 63 | 1008.8 |
| 20260510043822 | 79 | 154 | 2.0 | 4.0 | 0.00 | 0.00 | 0.00 | 62 | 1008.8 |
| 20260510042831 | 79 | 158 | 2.0 | 5.0 | 0.00 | 0.00 | 0.00 | 60 | 1009.1 |
| 20260510041836 | 79 | 157 | 2.0 | 4.0 | 0.00 | 0.00 | 0.00 | 59 | 1009.1 |
| 20260510040818 | 79 | 164 | 2.0 | 4.0 | 0.00 | 0.00 | 0.00 | 60 | 1009.1 |
| 20260510035827 | 79 | 149 | 1.0 | 3.0 | 0.00 | 0.00 | 0.00 | 61 | 1009.1 |
| 20260510032837 | 80 | 149 | 0.0 | 2.0 | 0.00 | 0.00 | 0.00 | 63 | 1009.4 |
| 20260510031814 | 80 | 133 | 0.0 | 2.0 | 0.00 | 0.00 | 0.00 | 63 | 1009.4 |
| 20260510030814 | 80 | 137 | 0.0 | 1.0 | 0.00 | 0.00 | 0.00 | 62 | 1009.4 |
| 20260510025829 | 80 | 118 | 0.0 | 1.0 | 0.00 | 0.00 | 0.00 | 60 | 1009.4 |
| 20260510024805 | 78 | 73 | 0.0 | 2.0 | 0.00 | 0.00 | 0.00 | 61 | 1009.1 |
| 20260510023826 | 81 | 127 | 0.0 | 1.0 | 0.00 | 0.00 | 0.00 | 55 | 1009.4 |
| 20260510022809 | 81 | 126 | 0.0 | 2.0 | 0.00 | 0.00 | 0.00 | 55 | 1009.1 |
| 20260510021843 | 82 | 117 | 0.0 | 1.0 | 0.00 | 0.00 | 0.00 | 55 | 1009.1 |
| 20260510020826 | 82 | 140 | 0.0 | 2.0 | 0.00 | 0.00 | 0.00 | 53 | 1008.8 |
| 20260510015846 | 83 | 147 | 0.0 | 2.0 | 0.00 | 0.00 | 0.00 | 53 | 1009.1 |
| 20260510014805 | 83 | 143 | 0.0 | 1.0 | 0.00 | 0.00 | 0.00 | 53 | 1008.8 |
| 20260510013811 | 84 | 155 | 1.0 | 2.0 | 0.00 | 0.00 | 0.00 | 51 | 1008.4 |
| 20260510012846 | 84 | 156 | 1.0 | 2.0 | 0.00 | 0.00 | 0.00 | 50 | 1008.4 |
| 20260510011846 | 85 | 156 | 1.0 | 2.0 | 0.00 | 0.00 | 0.00 | 51 | 1008.1 |
| 20260510010820 | 85 | 138 | 0.0 | 2.0 | 0.00 | 0.00 | 0.00 | 49 | 1008.1 |
| 20260510005842 | 86 | 150 | 0.0 | 2.0 | 0.00 | 0.00 | 0.00 | 49 | 1008.1 |
| 20260510004835 | 86 | 139 | 0.0 | 2.0 | 0.00 | 0.00 | 0.00 | 49 | 1008.1 |
| 20260510002832 | 87 | 158 | 1.0 | 2.0 | 0.00 | 0.00 | 0.00 | 46 | 1008.1 |
| 20260510001821 | 88 | 161 | 1.0 | 3.0 | 0.00 | 0.00 | 0.00 | 46 | 1008.1 |
| 20260510000833 | 88 | 159 | 1.0 | 2.0 | 0.00 | 0.00 | 0.00 | 45 | 1007.7 |
| 20260509235808 | 88 | 158 | 1.0 | 4.0 | 0.00 | 0.00 | 0.01 | 44 | 1008.1 |
| 20260509234832 | 88 | 168 | 1.0 | 3.0 | 0.00 | 0.00 | 0.01 | 44 | 1008.1 |
| 20260509233805 | 89 | 181 | 1.0 | 3.0 | 0.00 | 0.00 | 0.01 | 46 | 1008.1 |
| 20260509232822 | 89 | 154 | 1.0 | 4.0 | 0.00 | 0.00 | 0.01 | 45 | 1008.1 |
| 20260509231807 | 89 | 157 | 0.0 | 2.0 | 0.00 | 0.00 | 0.01 | 44 | 1008.1 |
| 20260509230824 | 89 | 62 | 0.0 | 1.0 | 0.00 | 0.00 | 0.01 | 39 | 1008.1 |
| 20260509225807 | 90 | 86 | 1.0 | 2.0 | 0.00 | 0.00 | 0.01 | 39 | 1008.1 |
| 20260509224825 | 91 | 180 | 0.0 | 1.0 | 0.00 | 0.00 | 0.01 | 39 | 1008.1 |
| 20260509222815 | 91 | 84 | 0.0 | 1.0 | 0.00 | 0.00 | 0.01 | 38 | 1008.4 |
| 20260509221806 | 90 | 170 | 0.0 | 2.0 | 0.00 | 0.00 | 0.01 | 39 | 1008.4 |
| 20260509220839 | 90 | 227 | 0.0 | 2.0 | 0.00 | 0.00 | 0.01 | 38 | 1008.1 |
| 20260509215834 | 90 | 113 | 0.0 | 2.0 | 0.00 | 0.00 | 0.01 | 38 | 1008.1 |
| 20260509214824 | 89 | 177 | 0.0 | 3.0 | 0.00 | 0.00 | 0.01 | 36 | 1008.1 |